Location: Newark
(6.9000°N, 10.0000°E)
Time: 13:58:34
(UTC+00:00)

N. Korean satellite - Visible Passes

Search period start: 15 October 2019 00:00
Search period end: 25 October 2019 00:00
Orbit: 455 x 508 km, 97.2° (Epoch: 14 October)

Date Brightness Start Highest point End Pass type
(mag) Time Alt. Az. Time Alt. Az. Time Alt. Az.
15 Oct 9.6 17:23:35 10° SSW 17:26:17 22° W 17:28:59 10° NW visible
17 Oct 7.9 04:41:14 10° NNE 04:44:45 48° E 04:48:19 10° S visible
18 Oct 9.8 04:16:54 10° NE 04:19:31 19° E 04:22:09 10° SE visible
18 Oct 10.5 17:42:42 10° WSW 17:43:45 11° W 17:44:48 10° W visible
21 Oct 8.6 04:33:36 10° NNE 04:36:59 35° E 04:40:24 10° SSE visible
22 Oct 10.2 04:09:40 10° ENE 04:11:44 14° E 04:13:49 10° SE visible
22 Oct 10.0 17:33:56 10° SW 17:35:55 15° W 17:37:54 10° WNW visible
